Погода в Полтаве

Погода в Полтаве : погода сейчас, прогноз погоды и архив. Всё, что Вы хотите узнать о погоде в Полтаве!

Поиск расширенной информации на нашем сайте:

Другие новости

Новости СМИ2

Главная страница сайта

Новости сайта

03.07.2017

Напоминаем, что на нашем специализированном сайте Метеоцентр.Азия вы можете получить высокодетализированные автоматические прогнозы погоды по пунктам России, СНГ и мира в авиационном формате (включающие направление и скорость ветра, видимость, явления погоды, количество и форму облачности, нижнюю и верхнюю границу облачности).


Погода в Полтаве - сегодня

Время (UTC), дата Ветер
(°,м/с) 
Видим.   Явления Облачность Т
(°С)
Тd
(°С)
f(%) Тe
(°С)
Pmin
(гПа)
dP
(гПа)
Po
(мм)
O2
(г/м3)
Тmin Tmax R s Состояние
почвы
21 17.08.18 070 (В) 10 км    ясно 
+22.6 +14.5 60 +30  1017.1  0.9  749  276           
00 18.08.18 080 (В) 10 км    3/0 средняя 
[Ac trans]
+20.3 +15.4 73 +30  1017.6  0.4  749  278           
03 18.08.18 070 (В) 10 км    3/0 верхняя 
[Ci fib]
+18.4 +15 81 +28  1018.6  0.8  750  280           
06 18.08.18 090 (В) 10 км    ясно 
+21.6 +14.8 65 +30  1018.9  0.5  750  277  +18.2         
09 18.08.18 110 (В) 10 км    1/0 верхняя 
[Ci fib]
+25.6 +13.7 48 +32  1018.8  0.2  750  274           
12 18.08.18 080 (В) 10 км    ясно 
+27.4 +9.9 33 +28  1018.3  -0.4  750  273           
15 18.08.18 070 (В) 10 км    ясно 
+27.4 +6.3 26 +27  1017.8  -0.6  750  274           
18 18.08.18 060 (СВ) 10 км    ясно 
+22.2 +9.6 45 +23  1019.1  750  278    +28.7       
21 18.08.18 тихо ()   10 км    ясно 
+18.3 +10.7 61 +20  1020.1  0.8  751  282           
00 19.08.18 тихо ()   10 км    ясно 
+17.2 +9.8 62 +18  1020.6  0.4  751  283           
03 19.08.18 тихо ()   10 км    ясно 
+14.7 +8.6 67 +15  1021.1  0.3  752  286           
06 19.08.18 050 (СВ) 10 км    ясно 
+19.5 +9.3 52 +21  1021.3  0.5  752  281  +14.4         
09 19.08.18 120 (ЮВ) 10 км    ясно 
+26.2 +7.7 31 +26  1020.5  -0.4  752  275           
12 19.08.18 170 (Ю) 10 км    3/0 верхняя 
[Ci fib]
+27.3 +5.5 25 +27  1019.3  -1.1  751  274           
15 19.08.18 110 (В) 10 км    3/0 верхняя 
[Ci fib]
+27.2 +5.6 25 +27  1018.4  -0.9  750  274           
18 19.08.18 тихо ()   10 км    3/0 верхняя 
[Ci fib]
+20.2 +10.7 54 +22  1019.1  0.3  750  280           
21 19.08.18 тихо ()   10 км    3/0 верхняя 
[Ci fib]
+17.4 +9.4 59 +18  1019.5  0.2  750  283           
00 20.08.18 тихо ()   10 км    1/0 верхняя 
[Ci fib]
+15.7 +8.9 64 +16  1019.4  -0.2  750  284           
03 20.08.18 тихо ()   10 км    4/0 верхняя 
[Ci fib]
+13.2 +8.8 75 +13  1019.8  0.2  750  287           
06 20.08.18 090 (В) 10 км    6/0 верхняя 
[Ci fib]
+21.2 +11.1 52 +24  1019.3  0.1  751  279  +12.7         
09 20.08.18 200 (Ю) 10 км    8/0 верхняя 
[Ci fib]
+26.1 +7.6 31 +26  1020  0.9  751  275           
12 20.08.18 230 (ЮЗ) 10 км    6/0 верхняя 
[Cc]
+27.8 +6.1 25 +28  1017.7  -2.2  750  273           
15 20.08.18 140 (ЮВ) 10 км    3/0 верхняя 
[Ci fib]
+27.4 +5.4 25 +27  1016.4  -1.2  749  273           
18 20.08.18 тихо ()   10 км    3/0 верхняя 
[Ci fib]
+20.8 +9.4 48 +21  1016.6  -0.2  749  279    +29.1       
21 20.08.18 тихо ()   10 км    ясно 
+18.6 +8.4 51 +19  1016.5  -0.3  748  281           
Время (UTC), дата Ветер
(°,м/с) 
Видим.   Явления Облачность Т
(°С)
Тd
(°С)
f(%) Тe
(°С)
Pmin
(гПа)
dP
(гПа)
Po
(мм)
O2
(г/м3)
Тmin Tmax R s Состояние
почвы

Для получения пояснительной информации подведите курсор к названию столбца.

ПОГОДА в Полтаве - архив

Всё, что Вы хотите узнать о погоде в Полтаве - удобно и подробно!

Выберите нужную дату (начиная с 1 января 2015* года) и нажмите кнопку "Найти".
Будут отображены архивные сводки погоды по пункту Полтава, начиная с указанной даты.


Отображать данные в формате CSV (для использования в таблицах Excel)


Внимание! Наш архив погоды предназначен исключительно для личного некоммерческого использования в познавательных целях. Если Вам необходимы официальные справки о состоянии погоды (для производственных, юридических, коммерческих и т.п. целей), обращайтесь в органы Росгидромета.

*Примечание: данная дата относится к архиву по метеостанциям СССР (Россия, СНГ, Балтия).
Архив по метеостанциям Зарубежной Европы и Азии (кроме Китая) хранится 10 дней, по другим регионам земного шара (Китай, Африка, Америка, Австралия, Океания) - 1 день.

Полтава - район местоположения метеостанции


Название, широта, долгота, высота метеостанции:
Полтава 49.6°ш. 34.6°д. 160 м над ур. моря [Украина]

Дополнительная информация

В oтличие oт бoльшинства пoгoдных сайтoв мы публикуем пoдрoбную метеoинфoрмацию в детальнoм прoфессиoнальнoм фoрмате.

Характеристики температуры и влажнoсти вoздуха измеряются на высoте 2 м в тени вдали oт зданий и деревьев.
Скoрoсть ветра измеряется на высoте 10 м (на урoвне рoста челoвека скoрoсть ветра ниже в 1.5-2 раза). Если метеoстанция нахoдится в гoрoде или в лесу, тo скoрoсть ветра занижена на 2-4 м/с пo сравнению с oткрытым местoм. Скoрoсть ветра над акватoриями крупных рек и oзёр, а также на вершинах хoлмoв на 2-5 м/с выше, чем в oбычных услoвиях.
Атмoсфернoе давление в разных тoчках местнoсти мoжет значительнo oтличаться oт давления на метеoстанции, в зависимoсти oт услoвий рельефа (при пoдъёме на 10 м давление пoнижается примернo на 1 мм рт.ст.).